Location: Baia Mare
(47.6567°N, 23.5850°E)
Time: 17:37:40
(UTC+03:00)

ISS - Pass Details

Date: 30 October 2018
Orbit: 403 x 408 km, 51.6° (Epoch: 16 October)

Event Time Altitude Azimuth Distance (km) Brightness Sun altitude
Exits shadow 05:16:55 26° 189° (S) 841 -2.4 -18.9°
Maximum altitude 05:18:06 35° 145° (SE) 670 -2.5 -18.7°
Drops below altitude 10° 05:21:08 10° 77° (ENE) 1,464 0.2 -18.2°
Sets 05:23:19 0° 69° (ENE) 2,328 1.3 -17.8°
